Location: Endfield
(51.6667°N, 0.0667°W)
Time: 11:47:54
(UTC+00:00)

USA 234 - Pass Details

Date: 19 May 2024
Orbit: 1100 x 1107 km, 123.0° (Epoch: 12 June)

Event Time Altitude Azimuth Distance (km) Brightness Sun altitude
Rises 21:53:11 0° 94° (E) 3,919 5.8 -13.4°
Reaches altitude 10° 21:55:41 10° 91° (E) 2,961 5.2 -13.6°
Maximum altitude 22:02:06 63° 13° (NNE) 1,225 3.7 -14.0°
Drops below altitude 10° 22:08:32 10° 294° (WNW) 2,963 6.3 -14.5°
Sets 22:11:02 0° 292° (WNW) 3,921 6.9 -14.7°
